Location: Vallejo Observatory
(38.1221°N, 122.2109°W)
Time: 02:22:30
(UTC-07:00)

Daily predictions for brighter satellites

Satellite Brightness Start Highest point End
(mag) Time Altitude Azimuth Time Altitude Azimuth Time Altitude Azimuth
CENTAUR R/B 3.9 03:30:50 32° N 03:30:50 32° N 03:34:47 10° NNE
ARIANE 5 R/B 4.5 03:52:51 10° N 03:54:43 23° N 03:54:43 23° N
SL-16 R/B 4.2 04:03:34 22° NNW 04:03:34 22° NNW 04:05:38 10° NNW
Cosmos 2074 Rocket 4.2 04:13:01 10° N 04:19:15 67° E 04:20:26 55° SE
Cosmos 2322 Rocket 3.8 04:22:34 24° NNW 04:22:34 24° NNW 04:25:24 10° N
SL-16 R/B 3.7 04:27:53 24° NNW 04:27:53 24° NNW 04:30:54 10° N
Cosmos 2237 4.3 04:30:31 69° ESE 04:30:40 69° ESE 04:36:24 10° NNE
Okean O Rocket 2.8 04:27:09 10° NNE 04:31:20 39° E 04:31:30 39° ESE
Resurs 1-4 Rocket 3.8 04:28:15 10° N 04:30:22 21° NNW 04:30:22 21° NNW
Cosmos 2219 Rocket 3.8 04:30:15 19° SSE 04:33:02 29° ESE 04:37:48 10° NE
COSMOS 2428 3.1 04:34:00 52° SE 04:34:51 57° ESE 04:40:25 10° NNE
CZ-2D R/B 3.7 04:30:53 10° N 04:33:28 24° NNW 04:33:28 24° NNW
Lacrosse 4 Rocket 3.7 04:40:03 17° SE 04:40:03 17° SE 04:41:09 10° SE
Cosmos 1844 Rocket 4.0 04:36:31 10° N 04:41:43 38° ENE 04:46:52 10° SE
Cosmos 1455 Rocket 4.3 04:38:19 10° N 04:40:51 34° N 04:40:51 34° N
DELTA 2 R/B (1) 3.4 04:43:29 82° SSE 04:43:29 82° SSE 04:48:58 10° ENE
Cosmos 2360 Rocket 2.7 04:51:24 44° NW 04:51:24 44° NW 04:56:18 10° N
Cosmos 1340 4.4 04:54:02 25° N 04:54:02 25° N 04:55:46 10° N
Cosmos 2184 Rocket 3.9 04:49:48 10° NNW 04:55:57 64° W 04:57:24 50° SSW
ADEOS II 2.4 04:51:36 10° NNE 04:56:51 63° ESE 04:59:40 27° S
Cosmos 2237 Rocket 3.9 04:56:14 10° SSE 05:01:04 30° ESE 05:05:56 10° NE
Gblst 52 Del rocket 4.4 05:01:40 22° NW 05:05:28 74° NE 05:11:50 10° ESE
Cosmos 1536 Rocket 3.7 05:07:23 57° NW 05:07:23 57° NW 05:11:24 10° N
ATLAS 5 CENTAUR R/B 4.0 05:04:37 10° NNW 05:10:02 34° NE 05:15:49 10° ESE
Cosmos 2208 Rocket 4.0 05:09:58 49° SW 05:11:19 69° WNW 05:16:46 10° NNE
ADEOS Rocket 4.3 05:08:05 10° NNW 05:11:06 20° NW 05:11:06 20° NW
Cosmos 1743 2.9 05:08:22 10° N 05:12:14 70° E 05:15:26 14° SSE
MTI 4.0 05:13:10 70° ENE 05:13:10 70° ENE 05:16:25 10° N
OAO 3 Copernicus 4.4 05:13:43 52° SW 05:14:35 61° S 05:19:33 10° E
GOES 2 Rocket 4.5 05:17:58 27° S 05:18:35 27° S 05:23:16 10° ESE
CZ-4B R/B 3.0 05:17:23 10° N 05:20:24 47° NW 05:20:24 47° NW
USA 215 3.3 05:14:23 10° SE 05:20:57 85° NE 05:27:33 10° NW
PSLV R/B 3.4 05:16:44 10° N 05:21:06 82° WNW 05:22:57 34° SSW
PAYLOAD B 4.2 05:15:46 10° N 05:21:21 73° WNW 05:24:48 24° SSW
Cosmos 2333 Rocket 2.6 05:17:45 15° S 05:22:30 64° ESE 05:28:11 10° NNE
Meteor 1-31 Rocket 4.2 05:19:11 10° NNE 05:22:44 36° E 05:26:15 10° SSE
EO 1 Del DPAF 3.1 05:24:03 20° S 05:26:39 68° W 05:30:30 10° NNW
OTV 4 3.1 05:27:14 11° SSE 05:27:26 11° SSE 05:28:08 10° SE
Okean 1-7 Rocket 3.8 05:23:19 10° S 05:27:49 72° E 05:32:18 10° NNE
Cosmos 2154 Rocket 3.9 05:23:49 10° NNW 05:29:58 66° W 05:36:04 10° S
USA 229 DEB 3.7 05:25:44 22° SSW 05:30:25 90° NNW 05:37:23 10° NNE
USA 229 3.7 05:25:48 22° SSW 05:30:31 90° ESE 05:37:29 10° NNE
Meteor PRIRODA 3.7 05:31:48 10° NNE 05:35:34 79° E 05:38:59 12° S
Hubble Space Telescope 3.1 05:35:11 11° S 05:36:36 13° SSE 05:38:34 10° SE
Tiangong 2 0.9 05:38:49 54° WNW 05:39:27 82° SSW 05:42:34 10° ESE
NOSS 3-1 (C) 4.3 05:40:08 10° S 05:45:32 46° ESE 05:51:27 10° NE
GPS 2-04 Rocket1 3.9 05:45:09 21° SSW 05:46:59 31° SSE 05:50:25 10° E
Cosmos 468 Rocket 3.9 05:42:38 12° SSW 05:47:27 77° WNW 05:52:41 10° NNE
Cosmos 2181 Rocket 3.9 05:43:22 10° SSW 05:49:30 68° W 05:55:48 10° N
SL-8 Rocket 4.1 05:43:23 10° N 05:49:37 80° E 05:55:47 10° S
Cosmos 1898 Rocket 3.4 05:45:10 10° NNW 05:50:24 90° E 05:55:34 10° SSE
Cosmos 1844 3.6 05:44:52 10° NNW 05:50:38 75° WSW 05:56:17 10° SSE
ERS-2 2.0 05:50:37 10° N 05:54:19 70° WNW 05:57:58 10° SSW
SL-16 R/B 3.7 05:52:24 10° S 05:57:33 37° ESE 06:02:43 10° NE
CZ-4B R/B 3.8 05:52:24 10° N 05:57:34 38° WNW 06:02:06 13° SW
Cosmos 1238 Rocket 3.9 06:00:19 16° WNW 06:00:19 16° WNW 06:01:44 10° NNW
CZ-2C R/B 4.5 06:03:11 10° SSW 06:07:12 30° W 06:11:12 10° NW
Okean O Rocket 3.2 06:04:21 10° NNW 06:07:23 18° WNW 06:08:58 15° W
Cosmos 1980 3.7 06:02:19 10° SSW 06:07:55 67° WNW 06:13:34 10° NNE
Cosmos 1437 2.7 06:05:12 10° SSW 06:08:26 65° W 06:11:42 10° N
COSMO-SKYMED 1 3.5 06:05:07 10° SSE 06:09:19 52° ENE 06:13:33 10° N
Cosmos 2341 Rocket 4.4 06:05:01 10° NNW 06:10:47 41° W 06:16:31 10° SSW
GENESIS II 4.5 06:07:33 13° SW 06:11:04 55° WNW 06:15:05 10° NNE
Cosmos 1025 Rocket 3.4 06:07:15 10° SSW 06:11:26 44° W 06:15:39 10° N
Cosmos 858 Rocket 4.5 06:07:15 10° NNW 06:12:29 66° WSW 06:17:38 10° S
Cosmos 1763 Rocket 3.4 06:09:39 10° SSW 06:14:43 83° WNW 06:19:52 10° NNE
Cosmos 1726 Rocket 3.6 06:10:22 10° N 06:14:50 88° E 06:19:18 10° S
Lacrosse 4 Rocket 3.5 06:16:41 11° SW 06:16:41 11° SW 06:16:56 10° SW
Cosmos 2219 Rocket 2.9 06:12:02 11° SW 06:16:50 35° WNW 06:21:56 10° N
Cosmos 2218 Rocket 4.0 06:10:34 10° N 06:16:57 76° W 06:23:14 10° S
Meteor 1-28 Rocket 4.4 06:14:21 10° SSE 06:18:01 48° ENE 06:21:43 10° N
Cosmos 1937 Rocket 3.5 06:14:08 10° NNW 06:19:26 69° WSW 06:24:40 10° S
COSMOS 2428 4.1 06:16:03 12° W 06:19:30 20° NW 06:23:40 10° N
SJ-6F 4.4 06:16:18 10° N 06:20:20 60° WNW 06:24:20 10° SSW
Okean-O 3.0 06:17:25 10° N 06:21:39 45° WNW 06:25:52 10° SW
Cosmos 1892 Rocket 3.5 06:18:20 10° SSW 06:22:38 69° W 06:27:00 10° N
Meteor 2-9 Rocket 4.5 06:17:55 10° NNW 06:23:16 44° W 06:28:26 10° SSW
Cosmos 1844 Rocket 3.5 06:20:48 10° NW 06:25:22 27° WSW 06:29:56 10° SSW
BREEZE M DEB (TANK) 3.0 06:19:27 10° NW 06:27:53 75° NNE 06:30:53 10° ESE
Cosmos 841 Rocket 3.4 06:23:36 10° SSW 06:28:45 76° WNW 06:33:55 10° NNE
NOSS 0 Rocket 4.3 06:22:55 10° SW 06:28:47 44° WNW 06:34:39 10° NNE
DELTA 2 R/B (1) 3.7 06:24:26 10° W 06:29:59 76° N 06:35:33 10° E
Aureole 2 Rocket 3.5 06:28:40 10° SW 06:31:49 27° WNW 06:34:46 10° N
Cosmos 1441 Rocket 3.2 06:28:01 10° SSW 06:31:57 72° W 06:35:57 10° N
NOAA 6 4.1 06:28:01 10° N 06:33:04 62° WNW 06:38:06 10° SSW
Radarsat Rocket 3.9 06:29:48 10° NNE 06:35:44 81° WNW 06:41:34 10° SSW
ADEOS II 3.7 06:32:57 10° NNW 06:35:59 16° WNW 06:39:02 10° W
Cosmos 1515 3.8 06:32:44 10° SSW 06:36:31 58° W 06:40:21 10° N
Cosmos 405 Rocket 3.8 06:35:00 10° SW 06:38:27 27° WNW 06:41:54 10° NNW
Cosmos 1346 2.9 06:36:45 10° SSW 06:39:34 62° W 06:42:23 10° N
Cosmos 1666 4.4 06:37:42 10° NW 06:39:51 15° W 06:42:01 10° WSW
Cosmos 2278 Rocket 2.4 06:36:07 10° NNW 06:41:35 50° WSW 06:47:00 10° S
